CAPE
1967 1773 1829 1796 1962 2063 2365 2690 2544 2466 2572 2766 2702 2556 2640 2674 2598 2598 2884 3019 2945 3167 2912 2469 2208 2190 2492 2570 2582 2703 3185 3019 2064 1856 2252 2884 2429 2707 2390 2090 1836 2155 1608 1726 1718 1590 1767 2167 2148 1898 1683 1765 2242 2465 3097 3535 3424 2892 2547 3064 3214 2528 2343
1854 1725 1835 1845 1840 2196 2671 2871 2673 2607 2829 2814 2543 2572 2511 2588 2737 2883 3062 3147 3113 2869 2846 2607 2535 2689 2828 3034 2760 2558 2708 1964 1470 1963 3476 2733 2876 2753 1653 1944 1827 2029 2141 2099 1776 1722 1961 2211 2526 2422 2178 2152 2233 2235 2475 3055 2965 2753 2104 2440 2737 2710 2594
1809 1661 1876 2053 1950 2216 2718 2854 2656 2656 2771 2447 2272 2329 2324 2406 2490 2760 2908 2887 2910 2682 2404 2699 2936 3079 3019 3057 3160 2864 2842 2446 1463 1830 3054 2796 2687 2374 2262 1978 1943 2174 2249 1999 2222 2176 2105 2141 2377 2560 2442 1932 1571 1642 2170 2264 2554 2537 2484 2788 2752 2369 2794
1908 1753 1959 2351 2330 2425 2749 2979 2856 2627 2659 2571 2592 2153 2132 2665 2722 2857 2903 2829 2881 2760 2608 2690 2969 3369 3198 3038 3142 2814 2534 2352 1537 1629 2424 2791 2671 2684 2425 2256 2071 2141 1985 2812 2424 2293 2294 2280 2173 2575 2666 2580 2046 1817 1782 1918 1914 2006 2032 2393 2604 2269 2432
2026 1945 2007 2589 2722 2753 2991 3164 3097 2656 2454 2382 2461 2678 2336 2161 2019 2308 2423 2626 2721 2719 2729 3021 3395 3336 3059 3043 2706 2608 2391 1767 1427 1514 2498 2542 2356 2468 2148 2335 2412 2592 2583 2224 2302 2498 2483 2342 2189 2275 2211 2356 2291 2097 2086 2148 2108 2141 2174 2348 2404 2316 2168
2113 2133 2237 2798 2948 3075 3149 3304 3190 2881 2547 2215 1727 1487 1218 1227 1687 1798 2028 2385 2775 2928 3106 3262 3592 2934 2743 2751 2180 1467 1488 1323 1501 1698 2507 2506 2284 1958 1488 1410 1905 2048 2008 2019 1927 2248 2567 2566 2693 2305 2064 1330 1927 1806 1700 1698 1858 1995 1800 2084 2064 1911 1858
2276 2251 2390 2797 3125 3210 3266 3262 3089 2882 2647 2416 1877 1085 855 987 1625 1840 1831 1958 2559 2797 2937 3224 3442 3144 2534 2691 1607 1298 1282 1453 1722 2929 2895 2589 2384 2210 2168 2041 2006 1879 2046 2102 2091 2287 2217 2130 2162 2188 2113 1626 2014 1604 1631 1926 2152 1854 1756 1862 2008 2243 2271
2630 2447 2535 2746 2870 2963 3022 3030 2932 2791 2771 2498 2243 2106 2278 2260 1943 1912 1875 2037 2608 2498 2862 3275 3400 2806 2354 1564 1818 2184 1839 1999 2950 2952 2908 2579 2310 2109 2047 1956 1899 1924 1899 1648 1793 1730 1972 1679 1467 1770 1786 1933 2276 2134 1633 1831 2159 1667 2111 1616 1572 1713 1851
2618 2771 2690 2463 2464 2568 2629 2859 2916 2563 2636 2621 2467 2490 2530 2455 2274 2041 2184 2210 2583 2830 3016 3149 2656 2176 1954 2204 2508 2793 2624 2826 2967 2670 2308 2238 2194 2061 1990 1792 1728 1572 1446 1520 1749 1420 1537 1625 1751 1786 1923 2097 2155 1965 1753 2033 1570 1330 1574 2157 1913 1614 1607
2650 2810 2819 2558 2586 2435 2636 2883 2961 2722 2845 2903 2771 2881 2913 2961 2828 2586 2544 3051 3250 3258 3317 3116 2032 2566 2143 2610 2584 2483 2129 2125 2291 2402 2288 1864 1933 1786 1458 1342 1450 1278 1108 1497 1482 1404 1579 1827 1575 1808 2103 2517 2327 2061 1996 1958 2057 2451 2206 2026 1714 1592 1536
3156 3278 3111 3070 3077 3191 3411 3470 3214 3259 3304 3414 3324 3324 3243 3312 3190 2988 3025 3684 3491 3587 3176 2958 2517 2061 2075 2270 1922 2114 1848 2009 2031 1913 1982 1947 1790 1615 1489 1492 1553 1161 1370 1605 1542 1610 1602 1677 1980 2208 2334 2452 2527 2267 2086 2008 2063 1974 2102 2027 1557 1677 1826
3717 3656 3670 3736 3842 4010 3961 3908 3846 3832 3770 3635 3418 3389 3542 3614 3483 3504 3575 3713 3646 3920 4280 4367 2562 2000 2355 2519 2318 2391 2352 1946 1858 1697 1807 1894 1672 1578 1580 1570 1612 1572 1727 1874 1740 1994 1828 1738 2288 2317 2473 2598 2587 2268 2324 2254 2388 2458 2531 2345 1876 1516 2133
3809 3828 3899 3983 3957 3880 4026 3946 3915 4084 4010 3824 3540 3521 3604 3944 3869 3845 4116 4221 4038 4409 4409 3904 2584 2365 2351 2381 2153 2031 1497 1442 1374 1648 1826 1963 2104 1641 1623 1673 1610 1624 1843 1545 1687 1580 1625 2143 2371 2412 2502 2666 2554 2388 2427 2466 2499 2856 3063 2743 2383 2064 1868
4038 4131 4206 4191 3984 4034 4141 4167 4310 4344 4292 4014 3866 3851 3959 3774 3953 4126 4440 4407 4512 4570 4181 3797 2980 2510 2790 2619 2374 2141 1912 1657 1720 1854 1853 2133 1846 1768 1718 1581 1599 1502 1494 1465 1579 1482 1680 2114 2058 2229 2460 2345 2116 2131 2659 2679 2772 2709 3054 2770 2486 2130 2256
3767 4040 4292 4084 4252 4320 4288 4447 4716 4527 4517 4412 4293 4131 4003 3759 3688 3714 3770 3660 3938 3920 3867 3731 3700 3653 3498 3211 2913 2876 2578 2475 2162 2156 1995 2438 2611 1996 1741 1447 1408 1709 1697 1589 1637 1758 1937 2083 1962 1983 2241 2283 2253 2285 2210 2111 1967 1898 1872 1683 1621 2019 1864
3559 3876 3760 3572 3998 4243 4580 4737 4919 4766 4712 4653 4432 4206 3781 3572 3447 3312 3382 3245 3171 3409 3740 3640 3723 3792 3354 2952 2512 2128 2080 2161 2212 1955 1940 1812 1946 2367 2061 1995 1877 1745 1785 1829 1932 2078 2162 2575 2424 2354 2396 2459 2489 2187 2042 1960 2087 2571 2159 2026 2291 2288 1944
3464 3500 3494 3612 4253 4364 4546 4818 4817 4831 4628 4476 4258 4023 3710 3267 3445 3399 3347 3309 3282 3258 3462 3408 3524 3550 2609 2500 2576 2545 2220 1993 1950 1882 1866 2080 1826 2206 2063 1944 2132 2297 2531 2554 2627 2658 2936 2777 2794 2587 2406 2469 2328 2299 2063 2066 1955 1740 1671 1426 1226 1902 2347
3571 3561 3644 4025 4428 4485 4712 4705 4884 4871 4640 4569 4378 4139 3818 3329 3368 3203 3257 3329 3236 2999 3495 3328 2963 2735 2587 2326 2492 2294 2316 2242 2268 2055 1904 2136 2016 2509 2857 2692 2618 2452 2390 1816 1590 2084 2235 2096 2315 2509 2420 2329 2214 2035 2048 1774 1761 1600 1430 1395 1350 1261 1551
3734 3747 3884 4278 4573 4735 4591 4537 4632 4733 4618 4689 4503 4262 3876 3350 3299 3303 3295 3365 3236 3092 3045 2932 2764 2613 2520 2538 2514 2476 2282 2314 2247 2126 1996 2123 2175 2167 1890 1600 1645 1504 1188 1066 955 1100 1283 1008 1034 1233 1286 1178 1460 1606 1837 1577 1435 1295 1263 1218 1271 1258 1291
3548 3736 4083 4436 4578 4601 4465 4405 4406 4391 4689 4776 4600 4262 3737 3309 3279 3387 3489 3420 3221 3117 2925 2856 2651 2567 2609 2592 2608 2474 2475 2347 2233 2046 2176 1958 1987 1891 1798 1463 1587 1332 1190 854 789 559 521 534 464 650 1060 856 1092 1414 1486 1188 1152 927 863 983 942 1043 1028
3724 3567 4060 4534 4449 4082 4482 4426 4341 4437 4634 4639 4418 3928 3587 3397 3578 3855 3457 3525 3502 3288 3110 3030 2925 2595 2506 2403 2358 2448 2428 2448 2389 2120 2046 1860 1718 1655 1509 1466 1285 982 823 756 667 535 444 262 247 309 526 461 615 879 942 801 806 740 592 542 548 594 618
4080 3962 4039 3943 4406 4228 4648 4304 4325 4500 4692 4646 4403 4122 3867 3533 3681 3508 3430 3527 3315 3330 3254 2931 2725 2390 2239 2187 2334 2382 2357 2392 2067 2087 1992 1786 1617 1502 1365 1086 1133 893 758 581 448 444 260 184 173 195 224 302 456 331 479 396 127 261 366 0 0 9 308
3180 3991 4033 4073 4055 4647 4730 4408 4327 4570 4880 4680 4614 4544 4061 3484 3607 3382 3308 3150 3043 3112 3050 2643 2362 2243 2078 1918 1978 1980 1994 2033 2020 1973 1964 1769 1535 1521 1387 1093 819 757 477 347 276 226 235 143 116 153 195 309 335 414 529 236 23 0 0 0 0 0 214
2689 3001 3489 3701 3702 4652 4718 4260 4132 4700 4266 4525 4581 4434 4146 3597 3328 2867 2633 2647 2731 2758 2651 2396 2316 2079 2059 1821 1937 2047 1893 2026 1975 1959 1892 1787 1371 1072 867 758 655 473 343 272 278 288 228 241 207 170 135 231 418 143 325 58 0 0 0 0 0 0 71
2528 2643 2948 3575 4194 4638 3961 4135 4202 4221 4053 4170 4202 4342 4426 4074 3738 3352 3071 2658 2444 2424 2298 2312 2288 2176 2125 1971 1821 1815 1874 1884 1858 1731 1518 1207 953 907 874 642 456 415 359 352 264 292 292 128 109 167 225 198 158 86 181 64 24 11 1 2 1 1 36
2816 2938 2891 2942 3700 4148 4216 4406 4458 3788 3832 3648 4094 4022 4161 4077 3991 3714 3392 2953 2837 2768 2761 2726 2496 2608 2421 2165 2078 1797 1943 1841 1690 1555 1389 1012 964 842 584 545 426 278 226 272 212 186 154 155 100 148 178 168 147 104 68 89 44 0 0 0 0 0 4
2506 2528 3056 3080 3124 3599 4168 4268 3649 3190 3282 3209 3977 3528 3507 3742 3755 3883 3655 3304 3144 3075 3054 3021 2768 2632 2324 2237 2007 1777 1908 1762 1540 1322 1280 1142 1063 765 529 481 230 240 186 153 170 186 207 114 69 36 26 43 30 20 37 25 47 6 1 0 0 0 0
2606 2726 2870 3250 3484 3577 3813 3566 3425 3210 2820 3279 3742 3271 3416 3516 3640 3949 3936 3635 3357 3379 3283 3134 2856 2622 2387 2204 1967 1868 1842 1625 1508 1434 1178 1034 866 587 441 316 230 139 141 137 138 118 97 128 54 14 11 8 6 4 8 17 15 17 4 1 2 0 0
2455 2536 2664 3052 3370 3216 3308 3447 3361 3213 2988 3315 3432 3144 3448 3307 3765 3829 3710 3280 3050 2979 3116 3286 3019 2718 2539 2284 2045 1849 1734 1620 1565 1328 972 853 649 474 410 216 140 71 95 123 103 94 74 90 32 12 15 11 12 18 13 18 18 1 17 2 0 0 0
1834 2205 2134 2511 2632 2970 2987 3356 3311 2970 2805 3107 3496 3332 3469 3325 3979 3894 3586 3412 3231 2884 3294 3310 2887 2691 2377 2217 1925 1766 1563 1601 1463 1073 891 767 553 446 353 139 51 77 87 52 72 60 23 46 35 29 7 9 14 9 13 16 18 6 3 1 0 0 0
1404 1430 1624 2067 2540 3074 2939 3018 3294 3186 2793 3123 3574 3445 3639 3463 4077 4029 3845 3655 3422 3364 3426 2984 2727 2470 2224 1972 1778 1526 1411 1122 1020 980 724 648 534 287 144 62 48 75 164 105 53 25 52 35 34 16 56 31 21 20 16 16 26 15 6 0 0 0 0
1446 1390 1431 1482 1555 2694 2962 2500 2928 2950 3020 3081 3312 3437 3725 3595 3839 4161 4034 3808 3848 3739 3376 3037 2745 2360 2146 1822 1556 1363 1208 1138 941 797 698 528 251 95 48 14 16 5 40 51 45 85 15 16 10 6 30 36 14 18 12 15 15 19 8 0 1 2 0
1313 1328 1402 1374 1407 1538 2487 2700 2268 2784 2858 2885 3056 3141 3272 3424 3396 3835 3912 3906 3554 3158 3074 2792 2512 2302 1931 1768 1264 1082 776 494 359 280 290 267 73 22 10 10 4 1 6 3 4 12 10 50 8 7 6 29 20 9 18 11 12 16 15 13 21 7 8
1142 1184 1218 1258 1253 1537 1651 1977 2615 2577 2353 2858 2991 3063 2989 3094 3210 3136 3319 3228 2522 2700 2686 2430 2071 1906 1922 1489 1232 844 719 504 327 297 214 146 65 38 20 9 2 0 3 3 1 2 3 2 6 12 7 7 10 10 9 12 10 12 10 26 2 4 4
934 979 1043 1109 1121 1190 1290 1488 1674 1824 2189 2690 2944 2872 3107 3054 2936 2883 2963 3078 2476 2631 2571 2198 1948 1896 1779 1533 1386 877 747 458 361 290 235 169 100 22 3 0 0 0 3 4 18 1 2 1 1 3 4 3 11 14 9 7 11 9 0 0 0 0 9
483 800 887 944 1039 950 978 1070 1384 1528 1924 1976 2349 2880 2836 2916 2676 2689 2107 2067 2277 2553 2588 2378 2014 2034 1770 1680 1316 884 702 552 455 421 260 72 78 13 0 0 0 0 0 0 0 0 0 0 0 0 0 4 7 1 2 16 0 0 0 0 0 0 0
273 175 592 820 827 804 1188 866 766 995 1602 2137 2341 2365 2496 2888 2752 2148 2012 2146 2487 2776 2808 2355 2102 1805 1655 1719 1708 1325 984 771 644 682 423 167 60 20 0 0 0 0 0 0 0 0 0 0 0 0 0 1 0 0 0 0 0 0 0 0 0 0 0
1149 1068 925 908 497 614 594 967 1220 1255 978 1975 2183 2596 2274 2283 2151 1956 2319 2454 2458 2947 2850 2464 2111 2061 1949 1837 1830 1546 1274 1026 812 701 492 274 106 45 25 4 0 0 0 0 0 0 0 0 0 0 0 0 0 0 0 0 0 0 0 0 0 0 0
Wind_Speed
22 19 18 16 16 15 13 12 15 17 20 22 24 26 23 19 17 17 16 16 15 15 16 14 10 7 5 6 5 5 6 7 10 2 8 11 10 13 12 12 6 4 3 4 5 6 7 8 8 8 7 5 4 3 3 4 4 5 5 7 7 8 8
20 19 18 16 16 16 16 15 16 17 20 23 24 24 21 20 20 18 15 15 15 13 13 12 10 7 8 8 8 6 9 12 7 4 11 14 11 12 14 12 8 5 4 6 7 7 8 8 6 6 5 4 3 3 4 3 3 4 5 6 6 7 6
20 19 18 17 16 16 16 16 16 17 19 21 22 21 16 19 20 16 15 15 14 11 10 10 9 8 10 10 9 8 9 12 10 6 9 9 8 8 11 11 9 8 6 5 6 7 7 6 7 6 5 4 5 4 4 4 5 5 4 5 6 6 6
18 20 20 20 18 16 16 16 17 17 18 19 20 19 13 18 20 18 15 14 12 10 9 9 8 10 12 12 11 9 8 13 11 6 4 7 9 10 10 10 10 9 6 7 6 8 9 9 7 6 4 5 6 6 6 6 6 4 4 4 5 4 5
18 19 19 19 18 16 15 14 14 15 18 18 16 14 10 16 19 17 15 12 11 9 8 8 10 12 14 15 13 10 12 15 9 2 2 5 8 10 9 8 9 8 8 7 7 8 8 6 7 9 6 4 4 3 3 4 4 4 4 3 3 3 2
18 20 20 19 19 17 15 14 13 13 15 17 15 11 5 11 16 12 11 10 9 9 8 9 12 13 15 13 11 11 14 9 3 3 3 6 8 8 7 6 7 8 8 7 8 8 7 6 7 7 6 3 3 2 3 2 2 1 1 1 2 3 2
17 18 19 18 18 18 16 13 11 10 11 14 13 10 5 1 3 5 5 5 7 7 8 9 13 14 16 12 10 12 12 7 6 5 5 6 8 9 9 8 8 10 11 12 9 8 7 6 5 6 5 3 5 5 5 5 4 4 4 4 3 2 2
15 15 16 16 18 18 15 12 10 8 7 9 11 10 7 3 1 3 3 4 6 6 7 10 13 16 17 7 9 11 10 8 7 5 7 8 8 10 10 10 9 9 11 9 8 7 7 4 3 7 6 1 3 3 5 5 8 9 10 5 3 2 3
16 14 14 15 17 16 14 11 8 6 6 6 9 9 7 4 0 2 2 3 5 5 7 11 18 17 10 7 8 11 8 6 5 6 8 8 8 9 9 9 8 8 10 9 8 7 6 1 3 7 5 3 3 3 4 4 9 4 4 6 8 5 2
18 16 14 15 15 14 12 10 7 5 5 3 3 5 5 3 0 3 3 4 5 6 8 11 20 16 7 6 9 11 9 6 5 6 8 8 7 7 6 5 5 5 8 9 7 6 5 3 1 6 6 2 2 1 2 2 4 5 6 5 4 5 6
17 17 16 16 16 15 13 9 6 4 4 3 2 1 3 2 1 3 4 4 5 6 10 13 21 11 6 5 10 9 7 5 3 4 5 5 4 4 4 3 3 3 6 7 5 6 4 3 2 4 3 1 2 2 1 1 3 2 4 5 4 3 5
19 17 15 16 15 14 12 8 4 3 3 3 2 2 3 3 3 4 4 4 5 7 10 15 20 8 7 3 7 7 6 3 2 2 2 3 2 2 1 1 1 2 4 4 4 4 6 5 3 4 2 1 3 3 2 2 0 1 0 2 3 4 7
18 17 16 16 14 12 11 8 6 4 3 3 3 3 4 4 4 5 5 5 6 9 9 12 15 6 7 3 5 6 3 2 4 4 3 3 2 2 2 2 1 2 3 3 2 2 4 4 3 2 1 2 3 4 2 2 2 0 1 1 1 1 3
18 17 16 14 14 14 12 11 9 7 5 4 3 3 4 4 4 4 4 4 6 7 6 7 10 6 7 6 2 2 2 4 5 5 4 3 3 3 4 3 2 2 4 5 3 3 3 4 3 2 1 2 3 1 1 1 1 1 1 1 1 0 2
18 17 16 16 15 14 12 11 10 9 7 6 4 4 4 4 3 3 3 2 3 4 5 5 5 3 6 8 7 5 3 5 5 6 4 3 3 3 3 4 3 2 3 4 4 5 6 5 4 3 2 2 2 1 0 1 1 1 3 3 4 3 3
18 16 16 16 16 14 12 11 10 10 9 7 6 5 4 3 3 3 2 2 2 3 4 3 1 1 5 9 10 10 8 6 6 5 3 2 1 2 2 2 2 1 2 2 3 2 2 1 2 2 2 2 1 1 0 1 3 14 14 13 9 8 8
17 15 15 14 14 13 12 10 10 9 8 8 7 6 4 2 3 3 4 4 4 3 4 2 1 2 5 6 8 9 9 9 7 6 5 4 3 3 2 2 2 1 2 1 1 2 2 2 4 4 2 3 2 2 2 2 9 14 14 12 11 5 4
15 14 15 14 13 12 12 12 11 10 8 7 7 7 6 5 4 4 4 4 4 4 4 2 1 1 2 3 4 5 7 8 7 8 7 7 5 3 3 3 2 2 3 3 3 4 3 5 4 5 5 4 5 5 5 8 6 10 10 9 8 5 1
14 13 15 15 15 14 13 13 13 11 10 8 8 8 9 7 6 5 5 4 4 5 3 3 2 1 1 1 2 4 5 5 5 5 5 4 3 3 2 2 2 1 2 2 4 5 5 4 4 4 4 2 3 4 3 10 10 9 10 8 8 7 3
12 12 14 14 15 16 15 13 13 11 9 8 8 9 8 7 7 6 7 7 7 5 5 5 4 3 3 3 4 4 3 3 3 3 2 1 1 1 0 1 1 3 3 3 3 3 4 4 3 2 2 2 2 0 4 10 13 10 9 9 8 8 5
9 12 13 14 15 16 16 16 15 11 7 7 8 8 7 7 7 8 8 9 8 7 6 5 6 4 4 4 4 3 3 3 3 3 2 1 1 1 1 2 4 3 3 3 2 2 1 2 2 1 1 1 1 1 5 12 14 11 11 11 11 10 5
9 10 13 14 14 14 16 17 16 12 8 7 8 7 6 7 7 8 8 9 8 7 6 6 5 5 4 4 4 4 4 3 3 3 4 3 3 3 3 4 4 3 4 4 3 3 2 1 1 1 1 2 2 3 4 14 15 15 13 nan nan nan 7
11 8 10 13 14 14 14 16 16 13 11 9 9 8 7 7 8 8 9 8 8 7 6 6 6 6 6 5 5 4 4 5 5 6 5 5 4 4 5 5 4 5 5 4 4 3 3 4 3 4 4 4 5 5 6 16 nan nan nan nan nan nan 8
13 9 9 11 13 15 15 14 15 14 11 12 10 9 9 9 8 8 8 7 7 6 6 5 5 6 6 6 6 6 6 6 6 8 8 7 6 5 5 5 5 5 5 4 4 4 5 6 5 5 5 6 7 8 9 nan nan nan nan nan nan nan nan
19 13 11 13 16 18 18 15 15 15 13 13 13 12 12 11 9 7 5 5 4 4 3 3 3 4 4 4 5 5 6 7 7 8 9 8 8 7 7 7 6 5 6 5 5 6 7 6 7 6 7 8 9 nan 8 nan nan nan nan nan nan nan nan
27 22 16 16 18 20 21 20 18 15 14 13 14 15 14 12 8 6 4 4 3 3 2 2 2 3 3 3 4 5 5 6 7 8 9 9 9 9 9 9 9 9 8 7 7 9 9 7 8 8 9 10 10 10 nan nan nan nan nan nan nan nan nan
31 28 25 19 19 20 23 22 20 17 12 11 12 12 13 11 8 6 5 5 4 4 5 5 5 5 5 5 5 6 7 7 8 9 9 9 10 10 10 10 10 10 10 10 9 9 11 10 nan nan nan nan nan nan nan nan nan nan nan nan nan nan nan
36 34 31 27 27 22 20 21 20 16 12 11 10 10 11 10 9 8 8 8 7 7 8 9 9 9 8 8 8 8 8 9 9 9 9 9 10 10 9 10 9 10 11 11 11 11 nan 11 nan nan nan nan nan nan nan nan nan nan nan nan nan nan nan
45 39 35 30 27 23 19 19 19 16 14 14 12 11 11 11 11 11 11 10 10 11 13 13 13 13 12 12 11 11 10 10 10 10 9 9 9 8 8 10 9 nan nan 9 10 nan nan nan nan nan nan nan nan nan nan nan nan nan nan nan nan nan nan
52 48 41 36 32 29 23 19 18 17 15 16 15 15 14 14 15 14 14 14 16 17 18 18 17 16 15 14 13 13 12 12 12 11 11 10 9 8 8 9 nan nan nan nan nan nan nan nan nan nan nan nan nan nan nan nan nan nan nan nan nan nan nan
55 53 50 46 42 36 26 21 20 20 18 19 19 18 17 17 18 18 16 19 21 22 23 22 22 19 17 16 15 14 14 14 13 13 12 12 11 9 8 nan nan nan 10 10 nan nan nan nan nan nan nan nan nan nan nan nan nan nan nan nan nan nan nan
52 52 51 50 49 44 36 26 23 22 21 21 20 21 20 19 20 19 19 22 25 26 27 27 26 23 20 18 16 16 16 15 15 15 14 12 11 nan nan nan nan nan nan nan nan nan nan nan nan nan nan nan nan nan nan nan nan nan nan nan nan nan nan
52 51 51 52 51 50 46 39 29 27 24 22 21 22 22 21 21 22 24 25 27 29 30 31 30 29 25 21 18 16 15 14 14 13 12 10 nan nan nan nan nan nan nan nan nan nan nan nan nan nan nan nan nan nan nan nan nan nan nan nan nan nan nan
55 55 52 51 51 50 50 48 44 38 31 27 26 25 25 25 25 27 28 28 28 32 33 33 31 30 27 24 20 18 17 15 15 12 13 14 nan nan nan nan nan nan nan nan nan nan nan nan nan nan nan nan nan nan nan nan nan nan nan nan nan nan nan
55 57 56 51 51 52 51 49 48 45 41 36 32 30 29 30 31 32 36 35 33 33 33 33 31 30 29 27 23 22 21 18 18 15 13 16 17 nan nan nan nan nan nan nan nan nan nan nan nan nan nan nan nan nan nan nan nan nan nan nan nan nan nan
53 56 58 54 49 48 52 53 51 49 41 38 35 33 32 33 37 38 44 41 38 35 34 33 32 31 29 29 27 27 27 23 21 20 17 nan nan nan nan nan nan nan nan nan nan nan nan nan nan nan nan nan nan nan nan nan nan nan nan nan nan nan nan
51 47 52 55 51 47 50 53 53 51 49 44 36 33 33 36 42 47 45 40 39 37 34 32 32 30 29 28 26 26 26 25 21 21 20 18 nan nan nan nan nan nan nan nan nan nan nan nan nan nan nan nan nan nan nan nan nan nan nan nan nan nan nan
53 43 39 43 46 47 50 54 57 56 52 48 44 40 37 41 52 44 40 38 35 34 34 30 29 28 26 25 24 24 24 23 22 22 20 19 18 nan nan nan nan nan nan nan nan nan nan nan nan nan nan nan nan nan nan nan nan nan nan nan nan nan nan
Wind_Direction
2 2 1 358 354 352 340 319 300 290 287 283 279 276 266 251 249 251 254 266 277 276 282 291 298 284 272 259 264 263 268 250 243 203 286 277 274 265 249 217 213 232 179 231 253 250 233 228 207 190 193 215 212 223 220 209 202 192 191 192 194 183 173
4 360 358 357 353 347 343 333 321 308 300 291 286 285 265 248 243 244 245 258 268 276 285 296 301 289 272 258 243 243 258 259 238 189 255 258 260 266 263 264 243 229 223 209 216 237 241 244 234 215 195 210 218 207 221 222 201 184 181 198 199 195 185
6 1 356 353 352 344 341 336 332 325 315 300 294 291 267 240 241 243 238 247 260 266 277 290 294 289 274 264 251 245 252 256 252 216 266 278 291 287 277 266 250 237 212 220 219 220 246 249 252 229 213 182 178 223 220 195 190 183 190 204 202 196 192
3 1 355 352 350 343 339 337 337 333 325 313 301 304 278 233 232 238 232 240 258 268 283 288 289 285 275 271 256 237 242 252 238 224 265 296 298 291 281 267 258 251 244 240 228 225 214 217 227 245 243 195 182 183 190 196 185 187 187 198 199 190 188
359 356 348 345 344 341 338 336 337 335 334 327 311 302 271 220 218 224 223 229 245 259 279 287 273 274 266 265 259 256 250 246 243 208 295 292 294 293 288 277 265 258 245 231 238 238 238 241 235 223 198 233 192 194 188 193 176 180 181 186 194 193 192
349 350 346 343 342 341 339 337 340 337 335 334 330 327 273 201 198 196 207 219 236 246 256 268 270 273 269 265 266 262 258 255 253 43 335 296 299 300 294 279 254 244 239 240 236 238 249 249 258 249 210 179 260 189 180 192 204 206 250 257 197 169 180
343 345 344 344 342 340 338 337 339 336 336 337 335 339 336 248 175 164 184 222 247 258 267 271 274 274 264 265 269 272 274 296 353 359 309 302 301 296 288 273 259 243 231 228 233 238 240 245 250 268 254 153 183 186 196 213 186 200 220 248 261 245 188
343 344 346 347 344 341 336 335 335 332 333 345 350 355 357 345 160 155 172 225 254 262 268 268 269 267 260 261 274 292 298 331 335 324 299 293 290 292 286 278 272 253 235 224 228 230 240 255 305 304 304 220 193 183 181 198 241 200 200 195 279 268 264
346 345 348 350 346 340 333 329 330 329 331 353 359 2 9 12 281 185 180 204 238 255 268 264 256 259 277 330 308 299 305 320 326 310 303 293 285 291 286 272 271 251 223 216 225 234 226 250 354 288 262 216 194 203 209 205 272 335 296 230 218 248 263
343 340 343 345 340 338 326 317 315 294 294 315 340 358 15 9 220 174 181 213 231 247 260 263 265 266 303 332 302 303 319 339 329 313 301 307 292 289 292 284 284 250 214 212 225 223 200 105 248 272 269 228 179 193 217 215 222 228 260 256 256 221 219
340 333 336 338 335 332 327 320 318 289 271 264 272 360 53 72 171 188 195 219 230 238 255 253 268 298 359 336 306 308 327 341 321 300 311 320 292 308 317 325 301 249 211 209 215 202 166 122 224 254 278 323 37 60 23 29 293 313 305 298 257 261 256
336 332 332 332 329 330 332 324 302 275 262 228 202 167 139 151 174 201 217 227 230 246 257 260 265 309 27 329 299 308 321 299 196 152 62 42 20 356 360 360 349 247 215 213 207 174 138 118 232 254 289 15 70 80 68 50 79 261 282 292 327 332 285
334 331 329 327 326 327 325 325 320 301 282 244 224 195 179 177 184 200 218 242 249 252 262 267 274 333 48 44 298 293 293 182 154 155 123 89 75 85 55 50 83 164 174 199 191 146 124 131 185 223 290 40 56 62 64 57 56 347 347 54 72 23 329
327 328 327 324 324 326 330 330 323 314 308 290 254 232 213 197 196 200 208 239 248 255 265 268 288 334 55 82 103 277 235 159 161 156 152 143 132 125 104 85 94 150 174 184 183 150 139 158 168 188 120 94 87 148 251 298 19 35 333 62 230 210 314
332 331 331 332 329 328 331 333 325 318 311 302 289 265 243 218 206 190 177 193 233 244 254 261 282 339 68 91 107 130 154 165 168 165 191 180 153 121 109 86 72 97 162 180 176 183 169 167 169 143 131 116 122 116 126 69 354 24 294 307 290 232 229
336 338 341 340 339 336 332 328 323 317 310 305 306 294 268 232 219 203 190 191 191 206 224 230 253 82 83 95 107 122 143 154 164 168 165 182 150 150 149 120 87 92 113 144 158 184 187 147 89 88 68 60 29 11 325 251 230 245 237 236 248 256 253
341 347 346 344 344 347 338 332 325 319 314 304 302 300 279 256 212 203 204 206 207 213 212 188 246 87 85 94 111 121 122 123 124 123 113 108 103 94 93 91 101 88 81 88 78 58 33 68 78 73 78 81 83 72 45 291 237 238 235 229 219 227 286
345 351 350 346 343 345 343 342 335 328 319 297 284 280 266 251 232 219 217 217 217 229 228 197 208 73 73 82 96 93 91 99 99 96 94 90 89 100 95 103 95 86 89 68 52 80 78 81 92 101 104 91 82 66 49 268 241 238 244 241 235 222 254
344 349 351 350 343 342 344 344 339 328 308 288 276 272 269 266 254 245 245 245 244 239 245 244 251 264 298 10 36 55 64 68 76 81 85 83 69 73 64 56 64 74 122 151 160 152 138 129 120 111 99 84 96 110 162 263 244 247 244 242 238 236 205
341 342 345 351 349 347 343 338 335 325 299 278 274 272 273 269 270 264 263 263 264 271 269 269 273 280 298 321 352 11 26 22 25 48 68 59 350 301 304 195 196 200 194 167 176 151 147 128 115 108 123 125 131 193 278 272 258 252 259 262 256 255 244
326 334 335 342 351 351 345 343 341 334 308 278 275 275 276 275 279 279 280 275 272 271 277 280 282 294 303 319 326 335 336 339 352 352 340 343 300 268 250 234 230 215 206 205 188 190 157 153 123 92 45 75 53 342 289 279 271 261 256 253 252 250 269
290 320 328 332 343 349 349 350 350 347 328 292 284 283 283 287 287 289 289 284 287 285 292 294 299 304 302 309 306 313 309 306 305 303 294 290 272 250 241 234 231 217 226 200 211 205 201 256 278 309 326 326 346 344 330 282 276 268 260 nan nan nan 292
249 272 305 318 329 336 346 348 346 338 325 314 303 296 296 291 296 294 292 299 300 301 307 314 317 316 315 312 307 310 306 306 308 308 300 294 279 259 248 240 226 220 214 219 235 253 265 260 280 278 290 294 300 299 299 286 nan nan nan nan nan nan 290
247 256 275 293 305 307 323 336 336 328 326 314 309 305 301 302 301 305 306 305 304 312 316 326 332 325 323 324 318 319 320 320 320 313 312 302 294 276 260 247 239 232 244 239 259 275 278 273 273 282 296 302 286 279 275 nan nan nan nan nan nan nan nan
243 244 260 273 290 301 311 319 328 324 317 309 305 305 310 314 316 308 311 312 319 332 346 355 344 336 329 326 324 328 328 325 317 309 306 305 297 289 283 273 266 265 263 261 262 266 272 282 284 292 299 299 293 nan 282 nan nan nan nan nan nan nan nan
236 235 242 266 282 295 299 303 312 322 317 310 306 306 309 308 308 306 300 306 307 325 337 332 314 300 309 308 314 313 315 309 309 302 296 293 290 284 280 278 278 283 285 289 294 299 295 291 285 290 287 286 297 300 nan nan nan nan nan nan nan nan nan
234 235 232 245 268 277 287 296 307 315 317 301 303 305 303 298 297 291 286 289 295 306 288 280 280 289 297 302 307 308 308 302 302 300 295 291 288 283 277 276 282 283 287 290 288 286 291 299 nan nan nan nan nan nan nan nan nan nan nan nan nan nan nan
229 235 238 240 246 260 272 286 297 307 311 292 294 295 291 288 279 274 276 283 295 293 280 280 285 283 281 284 290 293 299 302 298 298 295 290 283 286 287 283 277 281 288 291 293 298 nan 302 nan nan nan nan nan nan nan nan nan nan nan nan nan nan nan
225 229 235 237 241 246 249 268 286 297 303 296 296 281 275 283 278 274 277 283 288 283 282 283 282 279 276 274 277 281 287 294 298 294 287 288 284 285 293 289 291 nan nan 292 292 nan nan nan nan nan nan nan nan nan nan nan nan nan nan nan nan nan nan
226 225 229 232 233 236 239 249 265 273 282 288 294 285 273 271 270 271 277 282 277 278 280 281 279 278 275 273 275 277 281 283 287 283 277 275 275 280 284 287 nan nan nan nan nan nan nan nan nan nan nan nan nan nan nan nan nan nan nan nan nan nan nan
225 227 228 227 227 224 227 240 254 260 269 276 287 287 280 272 269 270 273 271 273 273 275 277 278 277 276 274 273 272 272 273 274 275 272 268 266 267 272 nan nan nan 282 287 nan nan nan nan nan nan nan nan nan nan nan nan nan nan nan nan nan nan nan
225 223 222 225 227 224 223 233 239 247 260 269 276 279 278 275 271 271 265 263 265 267 267 270 274 274 274 269 268 267 268 270 273 273 271 266 261 nan nan nan nan nan nan nan nan nan nan nan nan nan nan nan nan nan nan nan nan nan nan nan nan nan nan
227 222 216 216 223 223 223 225 233 237 242 253 261 266 270 274 270 265 262 262 263 263 264 267 270 272 274 272 270 267 264 266 268 274 277 272 nan nan nan nan nan nan nan nan nan nan nan nan nan nan nan nan nan nan nan nan nan nan nan nan nan nan nan
226 226 220 216 216 222 227 227 226 223 227 237 248 252 257 266 266 263 261 260 262 264 267 269 272 275 277 280 278 273 273 271 272 273 275 273 nan nan nan nan nan nan nan nan nan nan nan nan nan nan nan nan nan nan nan nan nan nan nan nan nan nan nan
220 226 223 217 217 219 227 229 227 223 217 220 231 241 250 253 260 264 260 257 262 269 273 278 286 288 291 293 294 292 288 287 289 292 284 277 271 nan nan nan nan nan nan nan nan nan nan nan nan nan nan nan nan nan nan nan nan nan nan nan nan nan nan
217 220 223 219 216 218 225 228 226 225 224 222 221 232 241 252 257 261 260 259 265 273 281 290 297 301 301 302 306 305 303 302 302 304 301 nan nan nan nan nan nan nan nan nan nan nan nan nan nan nan nan nan nan nan nan nan nan nan nan nan nan nan nan
223 222 220 218 215 215 224 229 228 224 220 222 226 227 237 247 254 253 261 268 268 274 282 292 296 300 302 307 310 307 300 298 302 304 304 303 nan nan nan nan nan nan nan nan nan nan nan nan nan nan nan nan nan nan nan nan nan nan nan nan nan nan nan
231 240 240 230 222 219 220 226 230 226 219 220 218 224 231 243 253 256 260 262 268 271 274 281 286 290 293 301 305 306 298 288 287 290 295 296 293 nan nan nan nan nan nan nan nan nan nan nan nan nan nan nan nan nan nan nan nan nan nan nan nan nan nan